Weather History for KHRT - October, 2013

Change the Weather History Date:

Saturday, October 26, 2013

  Actual Average Record
Temperature  
Mean Temperature 54 °F -  
Max Temperature 68 °F 75 °F 85 °F (2012)
Min Temperature 42 °F 56 °F 37 °F (2005)
Degree Days  
Heating Degree Days 10    
Growing Degree Days 4 (Base 50)    
Moisture  
Dew Point 36 °F    
Average Humidity 53    
Maximum Humidity 87    
Minimum Humidity 25    
Precipitation  
Precipitation 0.00 in - - ()
Sea Level Pressure  
Sea Level Pressure 30.25 in    
Wind  
Wind Speed 7 mph (NE)    
Max Wind Speed 10 mph    
Max Gust Speed -    
Visibility 10 miles    
Events Rain    
Averages and records for this station are not official NWS values.
T = Trace of Precipitation, MM = Missing Value Source: NWS Daily Summary

Daily Weather History Graph

Daily Weather History Graph

Search for Another Location

Airport or City:

Trip Planner

Search our weather history database for the weather conditions in past years. The results will help you decide how hot, cold, wet, or windy it might be!

Date:

Astronomy

Oct. 26, 2013 Rise Set
Actual Time 6:56 AM CDT 6:04 PM CDT
Civil Twilight 6:32 AM CDT 6:28 PM CDT
Nautical Twilight 6:04 AM CDT 6:56 PM CDT
Astronomical Twilight 5:36 AM CDT 7:24 PM CDT
Moon No Moon Rise 1:09 PM CDT (10/26)
Length of Visible Light 11h 56m
Length of Day
11h 07m
Waning Gibbous, 53% of the Moon is Illuminated
Oct 26
Waning Gibbous
Oct 26
Last Quarter
Nov 3
New
Nov 9
First Quarter
Nov 17
Full

Hourly Weather History & Observations

Time (CDT) Temp. Windchill Dew Point Humidity Pressure Visibility Wind Dir Wind Speed Gust Speed Precip Events Conditions
12:58 AM 45.1 °F 41.4 °F 32.9 °F 62% 30.29 in 10.0 mi NNE 6.9 mph - N/A   Clear
1:58 AM 43.9 °F 39.3 °F 34.7 °F 70% 30.28 in 10.0 mi North 8.1 mph - N/A   Clear
2:58 AM 42.8 °F 38.0 °F 34.7 °F 73% 30.27 in 10.0 mi North 8.1 mph - N/A   Clear
3:58 AM 42.8 °F 39.3 °F 32.4 °F 67% 30.26 in 10.0 mi NNE 5.8 mph - N/A   Clear
4:58 AM 44.6 °F 41.4 °F 32.0 °F 61% 30.26 in 10.0 mi NE 5.8 mph - N/A   Clear
5:58 AM 43.5 °F 40.1 °F 32.4 °F 65% 30.27 in 10.0 mi NE 5.8 mph - N/A   Clear
6:58 AM 43.5 °F 39.4 °F 32.5 °F 65% 30.28 in 10.0 mi NE 6.9 mph - N/A   Clear
7:58 AM 46.4 °F 42.4 °F 32.5 °F 59% 30.28 in 10.0 mi NE 8.1 mph - N/A   Clear
8:22 AM 48.2 °F - 32.0 °F 54% 30.27 in 10.0 mi NE 8.1 mph - N/A Rain Light Rain
8:32 AM 50.0 °F - 32.0 °F 50% 30.28 in 10.0 mi NE 5.8 mph - N/A   Clear
8:58 AM 52.5 °F - 32.5 °F 47% 30.29 in 10.0 mi ENE 6.9 mph - 0.00 in   Clear
9:58 AM 59.0 °F - 33.6 °F 38% 30.29 in 10.0 mi ENE 6.9 mph - N/A   Clear
10:58 AM 64.0 °F - 30.9 °F 29% 30.29 in 10.0 mi East 8.1 mph - N/A   Clear
11:58 AM 65.8 °F - 28.6 °F 25% 30.29 in 10.0 mi East 5.8 mph - N/A   Clear
12:35 PM 66.2 °F - 32.0 °F 28% 30.26 in 10.0 mi SE 8.1 mph - N/A   Light Drizzle
12:40 PM 66.2 °F - 32.0 °F 28% 30.26 in 10.0 mi SSE 10.4 mph - N/A   Clear
12:58 PM 66.9 °F - 30.7 °F 26% 30.27 in 10.0 mi SSE 8.1 mph - 0.00 in   Clear
1:58 PM 66.6 °F - 33.4 °F 29% 30.24 in 10.0 mi SSE 8.1 mph - N/A   Clear
2:58 PM 67.6 °F - 35.4 °F 30% 30.21 in 10.0 mi South 6.9 mph - N/A   Clear
3:58 PM 67.5 °F - 37.6 °F 33% 30.20 in 10.0 mi South 4.6 mph - N/A   Clear
4:58 PM 66.4 °F - 39.6 °F 37% 30.20 in 10.0 mi SW 5.8 mph - N/A   Clear
5:58 PM 64.2 °F - 41.7 °F 44% 30.19 in 10.0 mi West 3.5 mph - N/A   Clear
6:58 PM 59.4 °F - 44.6 °F 58% 30.20 in 10.0 mi North 2.3 mph - N/A   Clear
7:58 PM 53.4 °F - 46.6 °F 78% 30.20 in 10.0 mi North 3.5 mph - N/A   Clear
8:58 PM 51.6 °F - 45.9 °F 81% 30.20 in 10.0 mi North 3.5 mph - N/A   Clear
9:58 PM 50.9 °F - 45.7 °F 82% 30.20 in 10.0 mi North 2.3 mph - N/A   Clear
10:58 PM 48.4 °F - 44.6 °F 87% 30.19 in 10.0 mi North 5.8 mph - N/A   Clear
11:58 PM 48.0 °F - 43.7 °F 85% 30.17 in 10.0 mi North 4.6 mph - N/A   Clear